Regional Weather Roundup
Issued by NWS

Home | Current Version | Previous Version | Text Only | Print | Product List | Glossary On
Versions: 1 2 3 4 5 6 7 8 9 10 11 12 13 14 15 16 17 18 19 20 21 22 23 24 25 26 27 28 29 30 31 32 33 34 35 36 37 38 39 40 41 42 43 44 45 46 47 48 49 50
427
ASUS44 KLIX 211505
RWRLA
LOUISIANA WEATHER ROUNDUP
NATIONAL WEATHER SERVICE NEW ORLEANS LA
1000 AM CDT TUE OCT 21 2014

NOTE: "FAIR" INDICATES FEW OR NO CLOUDS BELOW 12,000 FEET WITH NO
      SIGNIFICANT WEATHER AND/OR OBSTRUCTIONS TO VISIBILITY.
      SKY/WX - SKY CONDITION AND SIGNIFICANT WEATHER.
      TMP - AIR TEMPERATURE.    DP   - DEWPOINT TEMPERATURE.
      RH  - RELATIVE HUMIDITY.  PRES - PRESSURE.
      HX  - HEAT INDEX.         WCI  - WIND CHILL INDEX.

*  THESE STATIONS ARE NOT NWS OR FAA STATIONS AND ARE NOT UNDER
   NWS QUALITY CONTROL.

LAZ040-048-061>063-065-066-069-211600-
SOUTHEAST LOUISIANA

CITY           SKY/WX    TMP DP  RH WIND       PRES   REMARKS
N.O. AUDUBON     N/A     76  54  46 MISG        N/A
N.O. INTL ARPT MOSUNNY   73  55  53 NE10      30.06R
N.O. LAKEFRONT SUNNY     71  56  58 NE13      30.07R
N.O. DOWNTOWN* FAIR      72  48  43 NE12      30.07R
SLIDELL        SUNNY     68  55  63 N8        30.07S
BATON ROUGE    SUNNY     68  54  60 NE8       30.08S
BOOTHVILLE     SUNNY     75  61  61 NE9       30.04S
BELLE CHASSE   MOSUNNY   73  55  53 NE8       30.06R
BOGALUSA*        N/A     69  55  59 NE5       30.10S
NEW ROADS*     FAIR      69  53  58 CALM      30.10R
GONZALES*      FAIR      69  56  62 NE6       30.07S
HAMMOND*       SUNNY     72  52  49 NE3       30.09S
HOUMA*         SUNNY    N/A N/A N/A NE9       30.06R
PORT FOURCHON* SUNNY     73  63  68 NE12G17   30.07S

$$

LAZ041-044-053-054-211600-
SOUTHWEST LOUISIANA

CITY           SKY/WX    TMP DP  RH WIND       PRES   REMARKS
LAKE CHARLES   SUNNY     69  55  60 NE10      30.08R
LAFAYETTE      SUNNY     68  55  63 VRB5      30.08S
PATTERSON        N/A    N/A N/A N/A MISG        N/A
SALT POINT       N/A     71  60  68 CALM      30.05R
NEW IBERIA     SUNNY     70  56  61 NE9       30.08S
CHENAULT AIRPK SUNNY     66  55  68 NE6       30.06S

$$

LAZ027-028-211600-
CENTRAL LOUISIANA

CITY           SKY/WX    TMP DP  RH WIND       PRES   REMARKS
FORT POLK      SUNNY     69  55  61 E6        30.11R
ALEXANDRIA INT SUNNY     67  54  63 CALM      30.10R
ALEXANDRIA     SUNNY     67  55  65 CALM      30.12R

$$

LAZ001-002-211600-
NORTHWEST LOUISIANA

CITY           SKY/WX    TMP DP  RH WIND       PRES   REMARKS
SHREVEPORT     SUNNY     69  57  65 SE3       30.11R
BARKSDALE AFB  SUNNY     69  57  65 CALM      30.12R
DTN SHREVEPORT SUNNY     67  57  70 CALM      30.12R

$$

LAZ014-016-211600-
NORTHEAST LOUISIANA

CITY           SKY/WX    TMP DP  RH WIND       PRES   REMARKS
MONROE         CLOUDY    65  58  78 CALM      30.13R
TALLULAH       SUNNY     67  55  65 CALM      30.12R

$$




USA.gov is the U.S. government's official web portal to all federal, state and local government web resources and services.